Weather History for KRCZ - October, 2013

Change the Weather History Date:

Wednesday, October 9, 2013

  Actual Average (KHFF) Record (KHFF)
Temperature  
Mean Temperature 62 °F -  
Max Temperature 68 °F 72 °F 95 °F (2007)
Min Temperature 55 °F 52 °F 44 °F (2001)
Degree Days  
Heating Degree Days 4    
Growing Degree Days 12 (Base 50)    
Moisture  
Dew Point 53 °F    
Average Humidity 78    
Maximum Humidity 88    
Minimum Humidity 66    
Precipitation  
Precipitation 0.01 in - - ()
Sea Level Pressure  
Sea Level Pressure 30.13 in    
Wind  
Wind Speed 8 mph (North)    
Max Wind Speed 16 mph    
Max Gust Speed 22 mph    
Visibility 10 miles    
Events Rain    
Averages and records for this station are not official NWS values.
T = Trace of Precipitation, MM = Missing Value Source: NWS Daily Summary

Daily Weather History Graph

Daily Weather History Graph

Search for Another Location

Airport or City:

Trip Planner

Search our weather history database for the weather conditions in past years. The results will help you decide how hot, cold, wet, or windy it might be!

Date:

Astronomy

Oct. 09, 2013 Rise Set
Actual Time 7:20 AM EDT 6:51 PM EDT
Civil Twilight 6:54 AM EDT 7:17 PM EDT
Nautical Twilight 6:25 AM EDT 7:46 PM EDT
Astronomical Twilight 5:56 AM EDT 8:15 PM EDT
Moon 12:04 PM EDT (10/9) 10:33 PM EDT (10/9)
Length of Visible Light 12h 22m
Length of Day
11h 31m
Waxing Crescent, 25% of the Moon is Illuminated
Oct 9
Waxing Crescent
Oct 11
First Quarter
Oct 18
Full
Oct 26
Last Quarter
Nov 3
New

Hourly Weather History & Observations

Time (EDT) Temp. Dew Point Humidity Pressure Visibility Wind Dir Wind Speed Gust Speed Precip Events Conditions
12:15 AM 56.3 °F 52.0 °F 85% 30.15 in 10.0 mi North 9.2 mph - N/A   Overcast
12:35 AM 56.3 °F 52.0 °F 85% 30.15 in 10.0 mi North 8.1 mph - N/A   Overcast
12:55 AM 56.3 °F 52.2 °F 86% 30.15 in 10.0 mi North 8.1 mph - N/A   Overcast
1:15 AM 55.9 °F 52.3 °F 88% 30.14 in 10.0 mi NNE 8.1 mph - N/A   Overcast
1:35 AM 55.9 °F 52.5 °F 88% 30.14 in 10.0 mi North 6.9 mph - N/A   Overcast
1:55 AM 56.1 °F 52.7 °F 88% 30.14 in 10.0 mi North 9.2 mph - N/A   Overcast
2:15 AM 56.3 °F 52.7 °F 88% 30.14 in 10.0 mi North 9.2 mph - N/A   Overcast
2:35 AM 56.8 °F 52.3 °F 85% 30.14 in 10.0 mi NNE 6.9 mph 17.3 mph N/A   Overcast
2:55 AM 57.2 °F 52.3 °F 84% 30.14 in 10.0 mi NNE 6.9 mph - N/A   Overcast
3:15 AM 57.2 °F 52.3 °F 84% 30.13 in 10.0 mi North 6.9 mph - N/A   Overcast
3:35 AM 57.2 °F 52.7 °F 85% 30.13 in 10.0 mi North 6.9 mph - N/A   Overcast
3:55 AM 56.7 °F 52.3 °F 85% 30.12 in 10.0 mi North 8.1 mph - N/A   Mostly Cloudy
4:15 AM 56.3 °F 52.0 °F 85% 30.12 in 10.0 mi North 6.9 mph - N/A   Mostly Cloudy
4:35 AM 55.9 °F 52.0 °F 87% 30.12 in 10.0 mi North 6.9 mph - N/A   Scattered Clouds
4:55 AM 55.6 °F 52.0 °F 88% 30.13 in 10.0 mi North 5.8 mph - N/A   Scattered Clouds
5:15 AM 55.6 °F 51.8 °F 87% 30.13 in 10.0 mi North 5.8 mph - N/A   Scattered Clouds
5:35 AM 56.1 °F 52.0 °F 86% 30.13 in 10.0 mi North 8.1 mph - N/A   Mostly Cloudy
5:55 AM 56.3 °F 51.4 °F 84% 30.13 in 10.0 mi North 8.1 mph - N/A   Overcast
6:15 AM 56.1 °F 50.9 °F 83% 30.13 in 10.0 mi North 6.9 mph - N/A   Scattered Clouds
6:35 AM 55.9 °F 50.5 °F 82% 30.13 in 10.0 mi North 5.8 mph - N/A   Clear
6:55 AM 55.4 °F 50.5 °F 84% 30.14 in 10.0 mi North 5.8 mph - N/A   Clear
7:15 AM 55.0 °F 50.5 °F 85% 30.13 in 10.0 mi North 6.9 mph - N/A   Scattered Clouds
7:35 AM 55.0 °F 50.7 °F 85% 30.14 in 10.0 mi North 5.8 mph - N/A   Overcast
7:55 AM 55.2 °F 50.7 °F 85% 30.15 in 10.0 mi North 8.1 mph - N/A   Mostly Cloudy
8:15 AM 55.4 °F 50.9 °F 85% 30.15 in 10.0 mi North 8.1 mph - N/A   Scattered Clouds
8:35 AM 55.8 °F 50.9 °F 84% 30.15 in 10.0 mi North 6.9 mph - N/A   Mostly Cloudy
8:55 AM 56.7 °F 51.3 °F 82% 30.15 in 10.0 mi North 9.2 mph - N/A   Overcast
9:15 AM 57.4 °F 51.3 °F 80% 30.16 in 10.0 mi North 9.2 mph - N/A   Mostly Cloudy
9:35 AM 58.3 °F 51.6 °F 78% 30.16 in 10.0 mi North 10.4 mph 16.1 mph N/A   Mostly Cloudy
9:55 AM 59.2 °F 52.2 °F 78% 30.16 in 10.0 mi North 10.4 mph 16.1 mph N/A   Overcast
10:15 AM 61.2 °F 52.7 °F 74% 30.16 in 10.0 mi North 8.1 mph 16.1 mph N/A   Mostly Cloudy
10:35 AM 60.8 °F 53.1 °F 76% 30.17 in 10.0 mi North 5.8 mph 9.2 mph N/A   Mostly Cloudy
10:55 AM 62.2 °F 53.8 °F 74% 30.16 in 10.0 mi North 8.1 mph - N/A   Overcast
11:15 AM 62.4 °F 54.0 °F 74% 30.16 in 10.0 mi North 9.2 mph - N/A   Overcast
11:35 AM 63.5 °F 54.9 °F 73% 30.16 in 10.0 mi North 6.9 mph - N/A   Overcast
11:55 AM 62.8 °F 54.5 °F 74% 30.16 in 10.0 mi North 8.1 mph - N/A   Overcast
12:15 PM 62.6 °F 54.9 °F 76% 30.16 in 10.0 mi North 6.9 mph 17.3 mph N/A   Overcast
12:35 PM 60.8 °F 55.0 °F 81% 30.16 in 10.0 mi North 13.8 mph 20.7 mph N/A Rain Light Rain
12:55 PM 60.8 °F 55.4 °F 82% 30.16 in 10.0 mi North 10.4 mph - N/A   Overcast
1:15 PM 61.5 °F 55.6 °F 81% 30.15 in 10.0 mi North 9.2 mph - N/A   Overcast
1:35 PM 63.3 °F 56.1 °F 77% 30.14 in 10.0 mi North 9.2 mph - N/A   Overcast
1:55 PM 64.8 °F 55.9 °F 73% 30.13 in 10.0 mi North 10.4 mph - N/A   Overcast
2:15 PM 66.6 °F 56.3 °F 69% 30.12 in 10.0 mi NNE 9.2 mph - N/A   Overcast
2:35 PM 64.6 °F 55.9 °F 74% 30.12 in 10.0 mi North 16.1 mph - N/A   Overcast
2:55 PM 64.4 °F 56.3 °F 75% 30.12 in 10.0 mi NNW 11.5 mph - N/A   Overcast
3:15 PM 63.9 °F 55.8 °F 75% 30.12 in 10.0 mi NNE 10.4 mph 18.4 mph N/A   Overcast
3:35 PM 64.4 °F 56.1 °F 74% 30.12 in 10.0 mi North 8.1 mph - N/A   Overcast
3:55 PM 66.2 °F 56.3 °F 70% 30.11 in 10.0 mi North 11.5 mph 16.1 mph N/A   Scattered Clouds
4:15 PM 67.3 °F 56.3 °F 68% 30.10 in 10.0 mi North 4.6 mph 18.4 mph N/A   Scattered Clouds
4:55 PM 68.0 °F 56.5 °F 67% 30.10 in 10.0 mi North 11.5 mph 17.3 mph N/A   Mostly Cloudy
5:15 PM 68.0 °F 56.3 °F 66% 30.09 in 10.0 mi NNE 9.2 mph 18.4 mph N/A   Overcast
5:35 PM 68.0 °F 56.5 °F 67% 30.09 in 10.0 mi North 6.9 mph - N/A   Overcast
5:55 PM 67.3 °F 55.8 °F 66% 30.09 in 10.0 mi North 8.1 mph - N/A   Scattered Clouds
6:15 PM 67.1 °F 55.6 °F 66% 30.09 in 10.0 mi North 6.9 mph - N/A   Clear
6:35 PM 66.9 °F 56.1 °F 68% 30.09 in 10.0 mi North 4.6 mph - N/A   Mostly Cloudy
6:41 PM 66.2 °F 55.4 °F 68% 30.09 in 10.0 mi North 5.8 mph - N/A   Mostly Cloudy
6:55 PM 66.4 °F 54.7 °F 66% 30.09 in 10.0 mi North 12.7 mph 19.6 mph N/A   Overcast
7:15 PM 65.7 °F 54.7 °F 68% 30.10 in 10.0 mi North 16.1 mph 21.9 mph N/A   Overcast
7:55 PM 64.4 °F 53.8 °F 68% 30.11 in 10.0 mi North 8.1 mph - N/A   Overcast
8:15 PM 63.9 °F 53.6 °F 69% 30.11 in 10.0 mi North 8.1 mph 21.9 mph N/A   Overcast
8:35 PM 63.5 °F 53.4 °F 70% 30.11 in 10.0 mi North 8.1 mph - N/A   Overcast
8:55 PM 62.8 °F 52.9 °F 70% 30.10 in 10.0 mi North 11.5 mph - N/A   Overcast
9:15 PM 62.1 °F 52.7 °F 71% 30.10 in 10.0 mi North 9.2 mph - N/A   Overcast
9:35 PM 61.5 °F 52.7 °F 73% 30.11 in 10.0 mi North 8.1 mph - N/A   Overcast
9:55 PM 61.2 °F 52.7 °F 74% 30.11 in 10.0 mi North 6.9 mph - N/A   Overcast
10:15 PM 60.8 °F 52.9 °F 75% 30.10 in 10.0 mi North 11.5 mph 16.1 mph N/A   Overcast
10:35 PM 60.8 °F 52.9 °F 75% 30.10 in 10.0 mi North 8.1 mph - N/A   Overcast
10:55 PM 60.8 °F 52.9 °F 75% 30.10 in 10.0 mi North 11.5 mph 16.1 mph N/A   Overcast
11:15 PM 60.6 °F 53.1 °F 76% 30.09 in 10.0 mi North 8.1 mph - N/A   Overcast
11:35 PM 60.1 °F 52.9 °F 77% 30.09 in 10.0 mi North 9.2 mph - N/A   Overcast
11:55 PM 59.9 °F 52.9 °F 78% 30.08 in 10.0 mi North 9.2 mph 17.3 mph N/A   Overcast